Regional Weather Roundup
Issued by NWS

Home | Current Version | Previous Version | Graphics & Text | Print | Product List | Glossary On
Versions: 1 2 3 4 5 6 7 8 9 10 11 12 13 14 15 16 17 18 19 20 21 22 23 24 25 26 27 28 29 30 31 32 33 34 35 36 37 38 39 40 41 42 43 44 45 46 47 48 49 50
000
ASUS43 KFSD 140802
RWRSD

WEATHER ROUNDUP FOR SOUTH DAKOTA
NATIONAL WEATHER SERVICE SIOUX FALLS SD
300 AM CDT MON JUL 14 2014

NOTE: "FAIR" INDICATES FEW OR NO CLOUDS BELOW 12,000 FEET WITH NO
SIGNIFICANT WEATHER AND/OR OBSTRUCTIONS TO VISIBILITY.


SDZ001>005-009-010-012>017-140900-
NORTHWEST AND NORTH CENTRAL SOUTH DAKOTA

CITY           SKY/WX    TMP DP  RH WIND       PRES   REMARKS
BUFFALO          N/A     55  42  61 N9        30.17R
FAITH            N/A     52  45  77 NW8       30.18R
MOBRIDGE       CLEAR     51  48  89 N6        30.10R
$$

SDZ012>016-024>037-041>051-057-063-072>074-140900-
SOUTHWEST AND SOUTH CENTRAL SOUTH DAKOTA

CITY           SKY/WX    TMP DP  RH WIND       PRES   REMARKS
RAPID CTY ARPT CLEAR     58  52  80 N12       30.19S
PIERRE         CLEAR     54  49  83 NW10      30.09S
CUSTER         CLEAR     54  47  77 NW5       30.29F
ELLSWORTH AFB  CLEAR     64  49  58 N9        30.20R
PHILIP         PTCLDY    59  46  62 N12       30.14R
PINE RIDGE     CLOUDY    58  57  97 CALM      30.18S
WINNER         FAIR      58  51  78 NW6       30.10S
$$

SDZ004>011-016>023-039-040-140900-
NORTHEAST SOUTH DAKOTA

CITY           SKY/WX    TMP DP  RH WIND       PRES   REMARKS
ABERDEEN       PTCLDY    53  48  83 NW10      30.04R
WATERTOWN      CLEAR     52  48  86 N5        30.00R
SISSETON         N/A     60  49  66 N12       29.97S
$$

SDZ017-020-022-023-036>040-048>070-140900-
SOUTHEAST SOUTH DAKOTA

CITY           SKY/WX    TMP DP  RH WIND       PRES   REMARKS
SIOUX FALLS    CLEAR     57  47  69 W7        30.00S
HURON          CLEAR     52  48  86 W7        30.03R
CHAMBERLAIN    CLEAR     55  48  80 NW7       30.07F
MITCHELL       CLEAR     56  47  71 W8        30.04S
YANKTON        CLEAR     61  52  72 W8        30.04S
$$

ABBREVIATIONS USED IN REMARKS
   TC - TEMPERATURE IN CELSIUS
  WCI - WIND CHILL INDEX
   HX - HEAT INDEX
  VSB - VISIBILITY




USA.gov is the U.S. government's official web portal to all federal, state and local government web resources and services.